Regional Weather Roundup
Issued by NWS Raleigh/Durham, NC

Current Version | Previous Version | Graphics & Text | Print | Product List | Glossary On
Versions: 1 2 3 4 5 6 7 8 9 10 11 12 13 14 15 16 17 18 19 20 21 22 23 24 25 26 27 28 29 30 31 32 33 34 35 36 37 38 39 40 41 42 43 44 45 46 47 48 49 50
000
ASUS42 KRAH 271410
RWRRAH
NORTH CAROLINA WEATHER ROUNDUP
NATIONAL WEATHER SERVICE RALEIGH NC
1000 AM EDT SAT MAY 27 2017

NOTE: "FAIR" INDICATES FEW OR NO CLOUDS BELOW 12,000 FEET WITH NO
SIGNIFICANT WEATHER AND/OR OBSTRUCTIONS TO VISIBILITY.

NCZ001-053-055-056-065-067-271500-
WESTERN NORTH CAROLINA

CITY           SKY/WX    TMP DP  RH WIND       PRES   REMARKS
ASHEVILLE      SUNNY     68  56  65 CALM      30.07R
JEFFERSON      MOSUNNY   70  58  65 W8G16     30.06S
MORGANTON      SUNNY     75  60  60 W5        30.04S
HICKORY        SUNNY     74  62  66 CALM      29.98F
RUTHERFORDTON  SUNNY     72  63  73 W6        30.01R
MOUNT AIRY     SUNNY     76  63  63 SW5       29.99S
BOONE          NOT AVBL
$$

NCZ021-022-025-041-071-084-088-271500-
CENTRAL NORTH CAROLINA

CITY           SKY/WX    TMP DP  RH WIND       PRES   REMARKS
CHARLOTTE      MOSUNNY   78  64  61 W6        29.98S
GREENSBORO     MOSUNNY   76  62  62 SW8       29.96R
WINSTON-SALEM  SUNNY     76  57  51 VRB5      29.97S
RALEIGH-DURHAM MOSUNNY   76  63  64 VRB3      29.96S
FORT BRAGG     SUNNY     77  62  60 CALM      29.95F
FAYETTEVILLE   SUNNY     78  63  59 SW5       29.96S
BURLINGTON     SUNNY     77  63  61 CALM      29.95S
LAURINBURG     SUNNY     78  65  63 SW7       29.97F
$$

NCZ011-015-027-028-043-044-047-080-103-271500-
NORTHEASTERN NORTH CAROLINA

CITY           SKY/WX    TMP DP  RH WIND       PRES   REMARKS
ROCKY MT-WILSO SUNNY     76  64  66 CALM      29.94F
GREENVILLE     SUNNY     77  63  61 W3        29.97S HAZE
WASHINGTON     SUNNY     78  63  59 W5        29.95S
ELIZABETH CITY SUNNY     77  63  61 CALM      29.94S
MANTEO         SUNNY     77  60  56 W3        29.95S
CAPE HATTERAS  SUNNY     77  66  68 SW8       29.96S
$$

NCZ078-087-090-091-093-098-101-271500-
SOUTHEASTERN NORTH CAROLINA

CITY           SKY/WX    TMP DP  RH WIND       PRES   REMARKS
LUMBERTON      SUNNY     78  64  61 W9        29.96F
GOLDSBORO      NOT AVBL
KINSTON        SUNNY     79  61  53 SW7       29.96F
KENANSVILLE    SUNNY     79  63  57 W8        29.96F
NEW BERN       SUNNY     79  63  57 SW7       29.97F
CHERRY POINT   SUNNY     81  61  50 SW9       29.97F
BEAUFORT       SUNNY     78  65  63 SW10      29.97F
JACKSONVILLE   SUNNY     79  63  57 W8        29.96F
WILMINGTON     SUNNY     80  62  54 S8        29.97F
$$




USA.gov is the U.S. government's official web portal to all federal, state and local government web resources and services.